Wind_Speed
7 10 15 12 16 14 13 3 7 3 5 8 9 7 8 11 14 17 18 22 20 22 26 37 43 46 49 52 50 44 41 39 36 25 20 38 36 40 40 42 40 43 43 44
2 6 5 13 11 11 9 5 4 3 1 4 8 9 7 12 15 16 14 17 18 17 27 32 41 44 43 52 51 43 34 37 32 23 22 28 30 37 38 41 42 39 38 43
3 7 2 8 5 10 7 3 4 4 6 5 6 11 9 13 11 12 10 12 16 15 21 26 36 37 44 45 50 39 36 35 35 32 17 22 20 33 42 39 39 41 40 40
4 3 3 4 10 11 9 13 4 1 5 4 5 7 6 8 7 9 9 9 12 17 23 23 27 36 41 40 46 37 35 34 37 33 28 26 28 17 32 34 36 37 40 41
1 3 4 11 10 5 4 5 13 8 6 4 7 7 7 13 11 11 7 14 18 22 23 24 22 29 30 35 41 37 40 37 37 38 35 34 31 29 16 18 22 27 33 37
5 3 1 6 8 9 1 1 10 9 6 6 7 10 8 14 17 20 22 22 20 22 17 27 29 28 22 28 38 37 36 35 39 36 35 34 33 30 26 10 15 37 30 36
4 1 2 5 7 4 5 5 6 6 6 5 4 5 7 15 17 22 25 27 25 20 16 25 31 24 25 20 26 37 40 38 37 39 34 37 33 30 26 21 3 14 28 31
3 4 4 6 5 5 5 4 4 5 6 5 5 8 9 12 12 19 21 25 25 21 22 23 25 22 27 22 21 32 35 33 34 29 28 33 34 35 33 32 29 28 22 6
4 5 6 5 5 3 3 3 5 5 6 7 10 10 10 12 11 18 22 23 26 25 25 23 20 21 23 30 24 27 25 30 32 30 32 37 30 35 38 38 33 27 23 19
3 3 6 4 6 3 4 5 6 7 7 10 10 12 11 12 14 18 19 24 26 23 23 22 23 24 21 27 22 23 27 24 30 33 31 26 33 34 33 35 36 31 25 25
8 5 3 5 3 2 5 8 7 13 14 10 11 11 11 9 17 18 21 23 23 22 23 24 26 26 26 21 20 21 22 24 24 23 23 23 24 27 30 31 35 32 31 22
6 9 3 3 4 6 6 5 9 9 10 15 14 10 17 15 19 20 21 23 23 23 24 25 25 25 26 26 23 22 20 22 25 21 22 18 15 20 21 24 31 33 35 36
4 8 3 2 5 9 6 7 13 13 16 10 15 17 19 16 20 21 20 20 23 23 25 25 27 24 26 27 27 22 22 22 23 21 20 21 19 12 12 18 23 23 29 28
4 6 4 6 5 12 12 15 17 15 16 17 16 19 18 19 18 18 20 21 21 24 25 26 26 26 27 26 24 24 25 23 24 26 23 19 20 14 7 12 11 15 19 23
9 9 7 8 11 10 15 13 8 8 12 15 18 16 17 16 16 18 20 22 24 23 25 27 27 26 27 26 23 21 21 22 26 24 24 25 22 15 9 6 4 3 11 12
6 6 7 5 6 6 8 9 7 7 13 15 15 16 16 17 18 18 20 21 23 22 25 25 26 27 25 26 25 21 20 23 25 23 21 25 26 22 16 15 9 5 5 4
4 5 5 4 6 6 6 10 11 13 15 16 15 18 19 19 17 21 23 23 23 23 25 26 23 22 26 25 25 21 21 21 21 20 21 22 23 21 22 19 18 16 14 7
7 8 9 8 6 5 7 12 15 15 14 16 16 18 14 16 19 22 24 27 25 25 22 23 27 28 28 24 23 22 20 21 19 19 18 19 21 20 22 23 20 18 18 17
6 9 11 13 15 14 14 15 15 15 16 15 14 11 17 21 22 23 25 24 22 17 22 26 28 26 25 27 31 26 22 21 20 19 19 19 20 18 16 16 19 20 20 19
9 11 12 13 16 17 15 16 16 15 16 16 16 19 20 21 22 21 20 18 22 22 29 30 26 23 25 28 32 29 23 22 21 19 18 17 18 18 17 16 16 17 20 20
8 10 11 13 14 14 15 15 16 15 17 17 16 17 17 18 20 21 18 18 23 31 30 27 26 28 32 33 27 23 21 20 20 20 18 17 18 17 17 18 19 20 20 21
7 8 10 12 12 12 13 15 16 16 16 17 18 18 17 17 17 17 17 21 24 28 28 28 30 29 27 30 29 25 21 22 23 22 20 19 17 18 19 20 20 19 19 20
4 7 9 10 11 11 13 16 16 15 16 16 16 17 16 16 16 17 16 23 24 25 26 29 31 31 28 29 29 28 31 32 28 27 26 25 23 23 24 24 23 23 21 19
4 7 8 9 10 10 11 14 14 15 15 14 15 16 16 15 15 17 17 18 23 21 23 29 29 29 31 30 29 27 29 28 27 27 27 26 26 26 27 25 25 26 24 24
5 9 9 9 8 10 11 11 12 12 13 13 14 15 16 15 15 16 17 17 20 20 19 24 27 26 25 27 26 26 25 27 27 25 24 24 24 25 26 26 26 25 24 24
9 12 10 8 9 10 9 9 9 10 12 13 13 15 15 16 16 17 18 20 19 20 21 22 23 24 24 23 24 23 23 24 24 24 24 24 23 24 25 26 24 24 26 24
15 11 9 9 9 8 6 6 9 7 9 11 11 13 15 16 16 16 18 18 21 22 21 20 23 21 24 21 22 23 21 21 23 24 24 24 24 25 26 25 23 22 24 24
Wind_Direction
63 75 71 44 43 33 47 12 55 57 27 336 335 325 313 336 335 350 357 2 360 2 357 359 1 357 354 352 350 344 348 346 340 303 319 215 210 199 199 195 196 197 197 199
119 342 6 69 32 47 50 13 52 24 344 278 323 339 312 343 346 344 347 354 354 355 4 358 4 356 347 350 344 337 343 351 347 334 293 323 209 204 198 197 201 202 197 198
34 293 270 16 42 64 48 57 148 47 245 290 318 344 324 341 337 333 325 336 345 342 355 4 5 352 351 344 339 335 347 355 357 4 343 296 285 225 200 195 198 201 202 199
321 134 45 266 94 111 67 16 27 322 295 259 272 306 313 321 299 308 322 319 333 336 338 354 4 358 353 340 339 337 346 352 5 4 1 357 337 255 222 213 201 195 199 201
88 342 145 32 26 5 147 36 5 21 339 304 320 337 321 331 329 312 305 323 330 336 344 347 348 2 346 344 338 341 352 356 1 4 1 5 355 352 255 234 211 218 202 201
347 8 75 305 30 21 216 107 351 5 349 328 342 354 330 334 334 338 332 327 325 336 346 346 342 343 337 355 345 343 345 353 3 6 5 8 6 3 349 245 236 214 207 204
347 72 261 302 59 51 57 268 319 353 330 321 334 273 286 324 329 337 340 337 339 331 354 343 338 347 341 341 4 349 348 354 0 8 3 16 14 15 2 31 80 314 202 211
4 32 318 257 76 109 226 302 323 318 328 307 274 307 318 326 323 334 338 342 340 349 339 332 340 342 336 337 347 1 356 355 -0 0 5 20 19 24 21 31 39 24 15 94
160 224 250 88 102 48 356 337 316 320 318 323 324 324 323 327 339 346 339 343 341 336 333 339 345 347 342 334 349 355 350 1 358 359 10 19 15 26 27 28 34 28 9 15
266 340 78 260 58 4 8 340 338 341 330 329 323 327 343 343 344 343 353 341 336 340 343 343 342 338 337 332 338 0 353 355 0 3 14 15 24 27 30 25 31 36 16 12
321 326 48 308 56 353 18 346 333 359 332 322 334 338 343 347 343 347 348 339 340 339 337 339 339 337 331 330 356 360 358 358 357 359 5 20 26 45 43 40 42 35 34 26
287 264 293 294 356 8 14 325 354 335 330 341 338 344 351 343 346 346 346 342 340 338 338 337 339 347 349 353 351 352 351 356 352 355 357 5 13 28 37 45 44 43 49 42
287 323 181 294 37 3 348 345 344 344 338 336 345 353 345 344 341 345 345 345 341 343 340 340 345 345 349 349 352 345 350 347 344 346 353 357 355 17 14 30 50 41 42 43
311 4 25 35 19 0 9 344 332 335 334 335 355 345 340 340 349 346 342 343 346 343 340 341 340 339 341 343 346 350 347 343 343 346 346 355 343 338 15 34 31 42 39 40
39 35 27 17 1 355 335 339 339 327 343 349 340 341 346 355 346 341 343 343 341 340 336 334 333 333 338 345 346 351 350 346 347 351 347 348 351 6 29 0 2 46 61 50
20 19 357 0 336 331 338 323 323 339 345 335 345 350 0 352 339 343 342 337 332 327 327 327 325 325 330 335 334 338 342 346 347 347 352 347 346 348 16 27 28 320 350 66
1 322 320 325 309 309 331 2 358 344 344 345 356 358 352 341 348 337 333 333 330 326 322 320 319 333 328 336 334 340 339 342 343 344 349 350 353 355 350 355 6 13 15 267
351 335 343 342 347 5 355 0 359 354 351 359 2 3 1 349 330 326 330 327 328 325 329 346 358 354 351 344 343 342 337 334 333 333 339 344 343 349 352 357 8 11 14 8
7 11 7 8 9 4 7 356 353 1 9 12 10 2 344 336 330 330 330 326 326 349 3 354 351 351 349 348 348 352 342 336 335 337 340 343 343 343 348 352 351 350 359 360
30 15 11 12 12 8 355 2 9 18 10 5 2 354 347 344 349 348 347 345 10 4 351 348 347 349 347 339 332 331 334 329 327 329 334 338 340 342 346 346 348 343 336 333
20 9 17 17 8 4 13 12 18 15 11 13 16 10 6 6 7 4 14 4 357 354 354 352 353 349 345 339 333 321 320 325 322 320 319 322 329 335 336 335 336 332 326 323
13 16 20 18 16 17 17 27 23 20 20 26 26 23 16 13 13 14 18 9 358 359 2 5 2 4 1 6 6 350 335 333 325 323 329 335 340 343 340 340 337 333 326 322
24 28 31 39 31 19 29 33 27 29 26 26 29 24 24 20 21 17 12 16 15 18 18 11 16 16 18 22 21 17 24 26 20 28 26 27 27 28 24 19 15 13 7 356
47 57 72 53 33 30 41 30 29 33 31 29 34 33 30 29 29 28 25 25 24 23 24 23 26 24 23 23 24 26 27 29 23 23 21 19 20 17 17 15 13 11 16 16
82 101 80 57 51 58 52 33 35 33 30 28 42 42 39 34 34 26 28 25 24 23 22 23 24 23 24 25 26 27 27 25 24 24 23 21 19 16 13 12 11 9 6 7
118 110 93 84 81 83 64 48 48 43 33 29 39 37 40 35 37 34 32 30 27 24 25 24 24 25 24 25 23 23 23 22 22 22 20 18 15 13 10 9 9 7 359 1
127 118 109 98 89 85 72 69 78 55 42 45 44 32 33 33 33 31 28 27 28 27 28 26 25 24 25 23 22 21 20 16 16 14 15 14 15 11 9 7 4 1 355 355
Height
870 862 869 870 871 868 882 896 879 881 884 878 869 863 856 845 836 826 817 808 801 792 787 780 772 762 753 743 736 730 722 706 694 685 682 678 680 682 686 691 698 705 710 716
871 869 881 874 871 874 873 895 898 889 884 875 862 856 853 844 834 827 821 813 806 803 796 788 779 772 762 753 745 740 731 716 704 685 669 664 674 678 679 683 689 698 702 708
863 872 886 886 880 881 880 888 899 901 892 875 867 858 854 844 837 833 827 820 813 807 803 795 786 784 775 763 755 748 735 722 705 689 678 679 672 668 665 671 679 685 693 700
864 872 917 879 870 880 884 874 873 882 885 876 870 858 851 846 841 835 828 821 815 809 801 793 790 788 782 771 762 750 739 727 711 700 693 684 668 662 657 664 672 672 681 689
897 877 875 871 871 881 880 890 872 873 875 871 862 856 853 843 837 830 822 817 811 807 803 800 795 791 789 779 770 756 736 730 715 707 692 681 677 665 666 664 660 675 675 680
873 885 904 881 869 866 866 884 869 868 870 869 862 863 854 841 834 828 821 816 811 808 805 802 797 794 790 782 771 757 747 736 724 711 704 691 680 672 669 661 661 661 668 672
880 891 896 869 868 866 887 894 872 867 866 865 868 861 849 840 834 828 823 818 813 808 806 802 796 792 787 781 772 760 747 732 719 712 714 698 691 678 679 664 653 666 658 669
888 912 926 868 867 890 879 870 867 864 862 860 858 850 845 839 833 827 822 818 814 809 805 801 795 790 786 780 774 764 750 743 736 729 724 706 702 693 687 670 664 668 653 663
893 890 866 864 868 868 867 867 863 861 858 855 851 846 841 837 832 828 823 818 814 809 803 800 796 793 787 781 772 766 762 753 740 734 718 712 713 703 682 683 678 677 668 674
872 865 864 865 866 865 864 863 860 858 855 852 848 843 839 835 832 828 823 818 812 808 804 799 795 790 785 780 775 770 762 754 744 733 725 726 717 706 706 699 691 690 691 685
874 863 866 862 861 861 861 860 858 857 854 849 845 841 838 835 830 827 823 818 813 808 803 798 793 788 783 779 776 770 767 762 754 749 743 733 730 725 719 719 711 707 703 706
872 864 865 864 860 859 858 858 857 854 851 847 844 840 837 834 831 827 822 818 812 807 802 798 793 789 783 777 772 767 765 759 755 751 745 741 740 729 728 730 718 718 715 713
866 857 854 857 858 859 858 855 853 851 849 845 842 839 836 833 829 825 822 818 813 808 803 799 793 789 784 781 775 769 762 758 756 754 748 743 740 737 738 728 723 726 724 719
857 856 857 857 860 859 857 854 851 848 845 843 840 838 833 830 827 825 821 817 814 807 802 798 793 788 784 780 774 768 764 761 757 751 748 746 745 741 736 731 732 729 725 724
860 859 859 859 858 857 855 851 848 845 843 841 838 835 832 829 826 824 819 815 811 808 802 796 790 786 782 778 774 770 766 763 759 754 750 747 745 742 738 736 737 736 734 732
859 859 858 858 857 854 852 849 847 845 842 839 836 833 831 829 824 821 818 815 811 805 801 796 790 785 781 777 772 770 766 763 758 756 753 749 745 743 740 739 737 736 733 733
859 859 857 856 854 852 851 849 847 845 841 838 835 832 829 825 822 819 816 813 808 804 800 795 791 786 781 776 772 768 766 763 761 758 755 752 750 746 743 740 738 736 733 736
855 854 854 853 852 851 850 849 847 845 841 838 835 832 830 827 823 818 813 808 805 801 797 793 790 785 780 776 772 768 764 762 761 759 757 755 752 750 748 745 744 742 741 740
853 852 852 851 851 850 849 847 845 843 841 839 836 833 830 826 822 818 813 808 803 800 800 797 792 786 782 777 773 768 765 763 761 760 757 754 753 751 750 748 746 745 745 743
851 851 850 850 849 849 847 846 844 843 841 839 836 833 830 826 822 818 813 810 809 805 800 794 790 786 782 777 774 771 767 764 762 759 755 754 753 751 749 749 748 745 744 743
849 849 849 849 849 847 846 845 843 842 841 839 836 834 831 828 823 819 816 813 810 805 799 793 789 783 778 775 770 767 763 761 759 757 755 754 752 750 749 746 743 742 740 738
847 847 847 847 847 847 846 844 843 842 840 839 837 835 832 829 826 823 820 817 811 805 799 795 790 786 780 773 768 762 758 755 754 753 753 751 749 747 746 744 741 739 738 737
845 845 845 845 845 845 845 844 843 842 841 839 837 835 834 832 829 826 822 820 815 810 805 799 793 788 783 778 774 767 762 756 756 755 755 753 751 748 746 744 742 739 735 733
842 843 843 844 844 844 844 844 843 843 842 840 839 837 835 833 832 829 827 824 820 815 811 807 800 793 787 782 779 776 772 769 766 763 761 758 754 752 748 747 744 742 738 735
839 840 841 842 843 843 844 844 843 843 842 841 840 838 837 835 833 831 828 825 822 818 815 811 806 801 796 792 787 783 780 776 774 772 770 767 761 757 753 748 746 745 741 739
835 837 839 840 841 842 843 843 843 843 842 841 840 839 837 836 834 832 830 826 823 821 817 814 810 806 802 798 794 790 787 784 781 777 773 768 764 760 756 753 749 745 742 739
833 835 837 839 840 841 842 842 842 842 841 840 840 839 838 836 834 833 831 828 825 822 819 816 813 810 806 803 800 796 793 789 784 780 776 772 768 764 759 755 752 748 744 742